TIANMU-1 10

Last updated on Mon Oct 27 2025 00:02:22 GMT+0000 (Coordinated Universal Time)

1 57402U 23101D 25299.48444046 .00008788 00000+0 33349-3 0 9991 2 57402 97.2967 350.5378 0005610 241.5918 118.4756 15.27063993125930
UTC large
Height (km)
Speed (km/s)
/
Latitude / Longitude
Inclination (degrees)
Orbital Period (minutes)
Azimuth
Elevation
Range (km)
Doppler Factor

Next 0 passes for location: London (51.5072 / 0.1276)

Sorry there are no passes over London.